Location: Unspecified
(0.0000°N, 0.0000°E)
Time: 09:52:26
(UTC+00:00)

CZ-3B DEB - Pass Details

Date: 20 February 2026
Orbit: 979 x 42142 km, 20.1° (Epoch: 15 November)

Event Time Altitude Azimuth Distance (km) Brightness Sun altitude
Rises 22:00:09 0° 271° (W) 7,942 ? -55.1°
Reaches altitude 10° 22:08:23 10° 287° (WNW) 4,554 ? -57.1°
Enters shadow 22:10:53 15° 298° (WNW) 3,564 ? -57.7°
